1998-067VP

Last updated on Sun Jul 09 2023 00:02:11 GMT+0000 (Coordinated Universal Time)

1 57212U 98067VP 23189.39024250 .00019448 00000+0 33778-3 0 9991 2 57212 51.6411 223.4030 0004392 117.7825 255.0939 15.50833035 2019
UTC large
Height (km)
Speed (km/s)
/
Latitude / Longitude
Inclination (degrees)
Orbital Period (minutes)
Azimuth
Elevation
Range (km)
Doppler Factor

Next 0 passes for location: London (51.5072 / 0.1276)

Sorry there are no passes over London.